This demonstration page uses our WeatherBlox Daily Observations layout. Learn more.

Left ArrowRight Arrow

Hourly Observations for May 11, 2015

Temp ( °F °C ) Dew Point ( °F °C ) Humidity (%) Winds ( mph kmh ) Pressure ( in mb ) Visibility ( mi km ) Precip ( " mm )
12:53 am 00:53 Partly Cloudy 70 21.1 64 17.8 82 82 W 6 9 30.06 1018 9 14 0.00 0.00
1:53 am 01:53 Mostly Clear 72 22.2 61 16.1 68 68 WNW 15 24 30.07 1018 10 16 0.00 0.00
2:53 am 02:53 Partly Cloudy with Light Rain 70 21.1 62 16.7 76 76 Calm 30.04 1017 10 16 0.00 0.03
3:53 am 03:53 Mostly Clear 66 18.9 62 16.7 87 87 E 5 7 29.99 1016 10 16 0.00 0.03
4:53 am 04:53 Clear 67 19.4 62 16.7 84 84 Calm 29.99 1016 10 16 0.00 0.00
5:53 am 05:53 Mostly Clear 68 20 61 16.1 78 78 Calm 29.99 1016 10 16 0.00 0.00
6:53 am 06:53 Sunny 63 17.2 60 15.6 90 90 Calm 30.00 1016 10 16 0.00 0.00
7:53 am 07:53 Sunny 70 21.1 62 16.7 76 76 VRB 3 6 30.01 1016 10 16 0.00 0.00
8:53 am 08:53 Sunny 72 22.2 62 16.7 71 71 VRB 5 7 30.01 1016 10 16 0.00 0.00
9:53 am 09:53 Sunny 76 24.4 63 17.2 64 64 VRB 3 6 30.01 1016 10 16 0.00 0.00
10:53 am 10:53 Sunny 80 26.7 62 16.7 54 54 S 8 13 30.00 1016 10 16 0.00 0.00
11:53 am 11:53 Mostly Cloudy 82 27.8 63 17.2 53 53 VRB 6 9 29.98 1015 10 16 0.00 0.00
12:53 pm 12:53 Mostly Cloudy 86 30 63 17.2 46 46 SSW 12 19 29.95 1014 10 16 0.00 0.00
1:53 pm 13:53 Mostly Sunny 88 31.1 63 17.2 43 43 SSW 12 19 29.92 1013 10 16 0.00 0.00
2:53 pm 14:53 Cloudy 85 29.4 61 16.1 45 45 SSW 17 28 29.91 1013 9 14 0.00 0.00
3:03 pm 15:03 Mostly Cloudy with Nearby Thunderstorms 79 26.1 62 16.7 56 56 SSW 14 22 29.91 1013 8 13 0.00 0.03
3:31 pm 15:31 Mostly Sunny 81 27.2 63 17.2 54 54 S 9 15 29.88 1012 10 16 0.00 0.03
3:53 pm 15:53 Sunny with Nearby Thunderstorms 82 27.8 65 18.3 56 56 SSW 8 13 29.89 1012 10 16 0.00 0.03
4:01 pm 16:01 Partly Cloudy with Thunderstorms 81 27.2 65 18.3 58 58 SSW 9 15 29.88 1012 10 16 0.00 0.00
4:16 pm 16:16 Partly Cloudy with Nearby Thunderstorms 80 26.7 65 18.3 60 60 WSW 7 11 29.88 1012 10 16 0.00 0.00
4:23 pm 16:23 Mostly Cloudy 80 26.7 65 18.3 60 60 VRB 3 6 29.88 1012 10 16 0.00 0.00
4:53 pm 16:53 Partly Cloudy 82 27.8 66 18.9 58 58 Calm 29.87 1012 10 16 0.00 0.00
5:53 pm 17:53 Mostly Cloudy 82 27.8 63 17.2 53 53 W 12 19 29.86 1011 10 16 0.00 0.00
6:46 pm 18:46 Cloudy with Light Rain 71 21.7 65 18.3 81 81 WSW 9 15 29.91 1013 3 4 0.02 0.51
6:53 pm 18:53 Cloudy with Light Rain 71 21.7 66 18.9 84 84 WSW 7 11 29.88 1012 8 13 0.02 0.51
7:53 pm 19:53 Cloudy with Light Rain 71 21.7 66 18.9 84 84 WSW 8 13 29.91 1013 4 6 0.02 0.51
8:53 pm 20:53 Mostly Cloudy 69 20.6 65 18.3 87 87 SW 5 7 29.94 1014 10 16 0.02 0.51
9:53 pm 21:53 Clear 66 18.9 64 17.8 93 93 SW 3 6 29.95 1014 10 16 0.00 0.00
10:53 pm 22:53 Clear 65 18.3 63 17.2 93 93 WSW 3 6 29.97 1015 10 16 0.00 0.00
11:53 pm 23:53 Clear 64 17.8 62 16.7 93 93 SW 3 6 29.98 1015 10 16 0.00 0.00

Powered by AerisWeather